EN

Hourly Weather Abu Dhabi

Today, 23 January, Saturday

Time Temperature Precipitation Wind Pressure Humidity
00:00 +17°C° 0 mm 7 mps 764 mmHg 76%
01:00 +17°C° 0 mm 6 mps 764 mmHg 77%
02:00 +16°C° 0 mm 6 mps 763 mmHg 78%
03:00 +16°C° 0 mm 6 mps 763 mmHg 80%
04:00 +15°C° 0 mm 5 mps 763 mmHg 81%
05:00 +15°C° 0 mm 5 mps 763 mmHg 81%
06:00 +15°C° 0 mm 5 mps 764 mmHg 80%
07:00 +15°C° 0 mm 5 mps 764 mmHg 80%
08:00 +16°C° 0 mm 6 mps 765 mmHg 69%
09:00 +18°C° 0 mm 7 mps 765 mmHg 59%
10:00 +21°C° 0 mm 7 mps 765 mmHg 48%
11:00 +22°C° 0 mm 7 mps 765 mmHg 42%
12:00 +23°C° 0 mm 7 mps 765 mmHg 35%
13:00 +26°C° 0 mm 7 mps 764 mmHg 29%
14:00 +26°C° 0 mm 7 mps 764 mmHg 27%
15:00 +27°C° 0 mm 8 mps 763 mmHg 26%
16:00 +27°C° 0 mm 8 mps 763 mmHg 24%
17:00 +26°C° 0 mm 8 mps 763 mmHg 28%
18:00 +23°C° 0 mm 9 mps 763 mmHg 31%
19:00 +22°C° 0 mm 9 mps 764 mmHg 35%
20:00 +21°C° 0 mm 9 mps 764 mmHg 35%
21:00 +19°C° 0 mm 9 mps 764 mmHg 35%
22:00 +18°C° 0 mm 8 mps 764 mmHg 35%
23:00 +17°C° 0 mm 8 mps 764 mmHg 36%

Tomorrow, 24 January, Sunday

Time Temperature Precipitation Wind Pressure Humidity
00:00 +17°C° 0 mm 8 mps 764 mmHg 37%
01:00 +16°C° 0 mm 8 mps 764 mmHg 39%
02:00 +15°C° 0 mm 8 mps 764 mmHg 40%
03:00 +15°C° 0 mm 7 mps 763 mmHg 41%
04:00 +15°C° 0 mm 7 mps 763 mmHg 42%
05:00 +15°C° 0 mm 6 mps 764 mmHg 43%
06:00 +14°C° 0 mm 6 mps 764 mmHg 44%
07:00 +14°C° 0 mm 5 mps 764 mmHg 45%
08:00 +16°C° 0 mm 5 mps 765 mmHg 40%
09:00 +19°C° 0 mm 5 mps 765 mmHg 34%
10:00 +21°C° 0 mm 5 mps 765 mmHg 28%
11:00 +22°C° 0 mm 5 mps 765 mmHg 26%
12:00 +25°C° 0 mm 5 mps 765 mmHg 23%
13:00 +26°C° 0 mm 5 mps 764 mmHg 21%
14:00 +25°C° 0 mm 5 mps 764 mmHg 28%
15:00 +25°C° 0 mm 5 mps 764 mmHg 35%
16:00 +23°C° 0 mm 6 mps 763 mmHg 41%
17:00 +22°C° 0 mm 5 mps 763 mmHg 44%
18:00 +21°C° 0 mm 5 mps 764 mmHg 46%
19:00 +19°C° 0 mm 5 mps 764 mmHg 48%
20:00 +19°C° 0 mm 5 mps 764 mmHg 48%
21:00 +19°C° 0 mm 5 mps 764 mmHg 49%
22:00 +19°C° 0 mm 4 mps 765 mmHg 49%
23:00 +18°C° 0 mm 4 mps 764 mmHg 57%

Day after tomorrow, 25 January, Monday

Time Temperature Precipitation Wind Pressure Humidity
00:00 +18°C° 0 mm 4 mps 764 mmHg 65%
01:00 +18°C° 0 mm 4 mps 764 mmHg 73%
02:00 +18°C° 0 mm 4 mps 764 mmHg 75%
03:00 +18°C° 0 mm 4 mps 763 mmHg 77%
04:00 +18°C° 0 mm 4 mps 763 mmHg 79%
05:00 +17°C° 0 mm 4 mps 764 mmHg 79%
06:00 +17°C° 0 mm 4 mps 764 mmHg 79%
07:00 +17°C° 0 mm 4 mps 764 mmHg 79%
08:00 +19°C° 0 mm 4 mps 764 mmHg 72%
09:00 +20°C° 0 mm 4 mps 765 mmHg 64%
10:00 +22°C° 0 mm 3 mps 765 mmHg 56%
11:00 +23°C° 0 mm 4 mps 765 mmHg 52%
12:00 +25°C° 0 mm 4 mps 764 mmHg 49%
13:00 +26°C° 0 mm 4 mps 764 mmHg 45%
14:00 +25°C° 0 mm 4 mps 764 mmHg 46%
15:00 +25°C° 0 mm 4 mps 763 mmHg 48%
16:00 +25°C° 0 mm 5 mps 763 mmHg 50%
17:00 +23°C° 0 mm 5 mps 763 mmHg 57%
18:00 +22°C° 0 mm 4 mps 763 mmHg 64%
19:00 +20°C° 0 mm 4 mps 764 mmHg 71%
20:00 +20°C° 0 mm 4 mps 764 mmHg 73%
21:00 +20°C° 0 mm 4 mps 764 mmHg 75%
22:00 +19°C° 0 mm 4 mps 764 mmHg 77%
23:00 +19°C° 0 mm 4 mps 764 mmHg 79%

26 January, Tuesday

Time Temperature Precipitation Wind Pressure Humidity
00:00 +19°C° 0 mm 4 mps 764 mmHg 80%
01:00 +18°C° 0 mm 4 mps 764 mmHg 82%
02:00 +18°C° 0 mm 4 mps 763 mmHg 81%
03:00 +18°C° 0 mm 4 mps 763 mmHg 81%
04:00 +18°C° 0 mm 4 mps 763 mmHg 81%
05:00 +18°C° 0 mm 4 mps 763 mmHg 81%
06:00 +18°C° 0 mm 4 mps 764 mmHg 81%
07:00 +17°C° 0 mm 4 mps 764 mmHg 82%
08:00 +19°C° 0 mm 4 mps 764 mmHg 71%
09:00 +21°C° 0 mm 4 mps 764 mmHg 60%
10:00 +23°C° 0 mm 5 mps 765 mmHg 50%
11:00 +23°C° 0 mm 5 mps 764 mmHg 47%
12:00 +25°C° 0 mm 5 mps 764 mmHg 44%
13:00 +25°C° 0 mm 5 mps 763 mmHg 41%
14:00 +25°C° 0 mm 5 mps 763 mmHg 42%
15:00 +25°C° 0 mm 5 mps 763 mmHg 42%
16:00 +25°C° 0 mm 5 mps 762 mmHg 43%
17:00 +23°C° 0 mm 4 mps 762 mmHg 51%
18:00 +21°C° 0 mm 4 mps 763 mmHg 58%
19:00 +20°C° 0 mm 4 mps 763 mmHg 66%
20:00 +20°C° 0 mm 4 mps 763 mmHg 68%
21:00 +19°C° 0 mm 4 mps 763 mmHg 71%
22:00 +19°C° 0 mm 4 mps 764 mmHg 73%
23:00 +18°C° 0 mm 3 mps 763 mmHg 75%

27 January, Wednesday

Time Temperature Precipitation Wind Pressure Humidity
00:00 +18°C° 0 mm 3 mps 763 mmHg 76%
01:00 +17°C° 0 mm 3 mps 762 mmHg 78%
02:00 +17°C° 0 mm 3 mps 762 mmHg 78%
03:00 +16°C° 0 mm 3 mps 762 mmHg 79%
04:00 +16°C° 0 mm 3 mps 762 mmHg 80%
05:00 +15°C° 0 mm 2 mps 763 mmHg 80%
06:00 +15°C° 0 mm 2 mps 763 mmHg 81%
07:00 +14°C° 0 mm 2 mps 763 mmHg 81%
08:00 +17°C° 0 mm 2 mps 763 mmHg 69%
09:00 +19°C° 0 mm 2 mps 764 mmHg 58%
10:00 +23°C° 0 mm 2 mps 764 mmHg 46%
11:00 +24°C° 0 mm 2 mps 763 mmHg 38%
12:00 +26°C° 0 mm 2 mps 763 mmHg 29%
13:00 +27°C° 0 mm 2 mps 763 mmHg 21%
14:00 +27°C° 0 mm 2 mps 762 mmHg 24%
15:00 +26°C° 0 mm 3 mps 762 mmHg 28%
16:00 +26°C° 0 mm 3 mps 761 mmHg 31%
17:00 +23°C° 0 mm 4 mps 761 mmHg 39%
18:00 +22°C° 0 mm 4 mps 762 mmHg 46%
19:00 +20°C° 0 mm 4 mps 762 mmHg 53%
20:00 +19°C° 0 mm 3 mps 762 mmHg 55%
21:00 +19°C° 0 mm 3 mps 762 mmHg 58%
22:00 +18°C° 0 mm 2 mps 762 mmHg 60%
23:00 +18°C° 0 mm 2 mps 762 mmHg 60%

28 January, Thursday

Time Temperature Precipitation Wind Pressure Humidity
00:00 +18°C° 0 mm 1 mps 762 mmHg 60%
01:00 +18°C° 0 mm 1 mps 761 mmHg 61%
02:00 +16°C° 0 mm 1 mps 761 mmHg 63%
03:00 +15°C° 0 mm 1 mps 761 mmHg 65%
04:00 +14°C° 0 mm 0 mps 761 mmHg 67%
05:00 +14°C° 0 mm 1 mps 761 mmHg 68%
06:00 +14°C° 0 mm 1 mps 762 mmHg 68%
07:00 +14°C° 0 mm 1 mps 762 mmHg 69%
08:00 +18°C° 0 mm 1 mps 762 mmHg 56%
09:00 +19°C° 0 mm 2 mps 763 mmHg 43%
10:00 +23°C° 0 mm 2 mps 763 mmHg 30%
11:00 +24°C° 0 mm 2 mps 763 mmHg 27%
12:00 +26°C° 0 mm 1 mps 762 mmHg 24%
13:00 +27°C° 0 mm 1 mps 762 mmHg 20%
14:00 +27°C° 0 mm 2 mps 761 mmHg 23%
15:00 +27°C° 0 mm 3 mps 761 mmHg 25%
16:00 +27°C° 0 mm 3 mps 760 mmHg 28%
17:00 +25°C° 0 mm 4 mps 760 mmHg 38%
18:00 +22°C° 0 mm 4 mps 760 mmHg 48%
19:00 +20°C° 0 mm 4 mps 761 mmHg 58%
20:00 +20°C° 0 mm 4 mps 761 mmHg 55%
21:00 +20°C° 0 mm 4 mps 761 mmHg 52%
22:00 +19°C° 0 mm 4 mps 761 mmHg 49%
Show more